Time,TemperatureF,DewpointF,PressureIn,WindDirection,WindDirectionDegrees,WindSpeedMPH,WindSpeedGustMPH,Humidity,HourlyPrecipIn,Conditions,Clouds,dailyrainin,SolarRadiationWatts/m^2,SoftwareType,DateUTC
2013-01-27 00:01:00,31.0,31.0,29.95,NNW,345,0.0,-999.0,99,0.00,,,0.04,0.000000,,2013-01-27 08:01:00,
2013-01-27 00:11:00,31.0,31.0,29.95,NNW,345,0.0,-999.0,99,0.00,,,0.04,0.000000,,2013-01-27 08:11:00,
2013-01-27 00:42:00,31.0,31.0,29.95,North,2,0.0,-999.0,99,0.00,,,0.04,0.000000,,2013-01-27 08:42:00,
2013-01-27 00:52:00,31.0,31.0,29.95,North,2,0.0,-999.0,99,0.00,,,0.04,0.000000,,2013-01-27 08:52:00,
2013-01-27 01:02:00,31.0,31.0,29.95,North,2,0.0,-999.0,99,0.00,,,0.04,0.000000,,2013-01-27 09:02:00,
2013-01-27 01:11:00,31.0,31.0,29.95,North,2,0.0,-999.0,99,0.00,,,0.04,0.000000,,2013-01-27 09:11:00,
2013-01-27 01:32:00,31.0,31.0,29.93,ESE,102,10.0,-999.0,99,0.00,,,0.04,0.000000,,2013-01-27 09:32:00,
2013-01-27 01:42:00,31.0,31.0,29.93,ESE,102,10.0,-999.0,99,0.00,,,0.04,0.000000,,2013-01-27 09:42:00,
2013-01-27 01:52:00,31.0,31.0,29.93,ESE,102,10.0,-999.0,99,0.00,,,0.04,0.000000,,2013-01-27 09:52:00,
2013-01-27 02:01:00,31.0,31.0,29.93,ESE,102,10.0,-999.0,99,0.00,,,0.04,0.000000,,2013-01-27 10:01:00,
2013-01-27 02:11:00,31.0,31.0,29.93,ESE,102,10.0,-999.0,99,0.00,,,0.04,0.000000,,2013-01-27 10:11:00,
2013-01-27 02:42:00,31.0,31.0,29.94,South,175,12.0,-999.0,99,0.00,,,0.04,0.000000,,2013-01-27 10:42:00,
2013-01-27 02:52:00,31.0,31.0,29.94,South,175,12.0,-999.0,99,0.00,,,0.04,0.000000,,2013-01-27 10:52:00,
2013-01-27 03:01:00,31.0,31.0,29.94,South,175,12.0,-999.0,99,0.00,,,0.04,0.000000,,2013-01-27 11:01:00,
2013-01-27 03:11:00,31.0,31.0,29.94,South,175,12.0,-999.0,99,0.00,,,0.04,0.000000,,2013-01-27 11:11:00,
2013-01-27 03:42:00,31.0,31.0,29.94,NW,321,18.0,-999.0,99,0.00,,,0.04,0.000000,,2013-01-27 11:42:00,
2013-01-27 03:52:00,31.0,31.0,29.94,NW,321,18.0,-999.0,99,0.00,,,0.04,0.000000,,2013-01-27 11:52:00,
2013-01-27 04:02:00,31.0,31.0,29.94,NW,321,18.0,-999.0,99,0.00,,,0.04,0.000000,,2013-01-27 12:02:00,
2013-01-27 04:11:00,31.0,31.0,29.94,NW,321,18.0,-999.0,99,0.00,,,0.04,0.000000,,2013-01-27 12:11:00,
2013-01-27 04:33:00,30.0,30.0,29.96,NE,39,2.0,-999.0,99,0.00,,,0.04,0.000000,,2013-01-27 12:33:00,
2013-01-27 04:42:00,30.0,30.0,29.96,NE,39,2.0,-999.0,99,0.00,,,0.04,0.000000,,2013-01-27 12:42:00,
2013-01-27 04:52:00,30.0,30.0,29.96,NE,39,2.0,-999.0,99,0.00,,,0.04,0.000000,,2013-01-27 12:52:00,
2013-01-27 05:02:00,30.0,30.0,29.96,NE,39,2.0,-999.0,99,0.00,,,0.04,0.000000,,2013-01-27 13:02:00,
2013-01-27 05:11:00,30.0,30.0,29.96,NE,39,2.0,-999.0,99,0.00,,,0.04,0.000000,,2013-01-27 13:11:00,
2013-01-27 05:42:00,29.0,29.0,29.97,North,352,2.0,-999.0,99,0.00,,,0.02,0.000000,,2013-01-27 13:42:00,
2013-01-27 05:52:00,29.0,29.0,29.97,North,352,2.0,-999.0,99,0.00,,,0.02,0.000000,,2013-01-27 13:52:00,
2013-01-27 06:01:00,29.0,29.0,29.97,North,352,2.0,-999.0,99,0.00,,,0.02,0.000000,,2013-01-27 14:01:00,
2013-01-27 06:11:00,29.0,29.0,29.97,North,352,2.0,-999.0,99,0.00,,,0.02,0.000000,,2013-01-27 14:11:00,
2013-01-27 06:53:00,31.0,31.0,29.97,NNW,327,15.0,-999.0,98,0.00,,,0.02,0.000000,,2013-01-27 14:53:00,
2013-01-27 07:01:00,31.0,31.0,29.97,NNW,327,15.0,-999.0,98,0.00,,,0.02,0.000000,,2013-01-27 15:01:00,
2013-01-27 07:11:00,31.0,31.0,29.97,NNW,327,15.0,-999.0,98,0.00,,,0.02,0.000000,,2013-01-27 15:11:00,
2013-01-27 07:32:00,32.0,27.0,29.99,SSW,197,8.0,-999.0,83,0.00,,,0.01,0.000000,,2013-01-27 15:32:00,
2013-01-27 07:42:00,32.0,27.0,29.99,SSW,197,8.0,-999.0,83,0.00,,,0.01,0.000000,,2013-01-27 15:42:00,
2013-01-27 07:52:00,32.0,27.0,29.99,SSW,197,8.0,-999.0,83,0.00,,,0.01,0.000000,,2013-01-27 15:52:00,
2013-01-27 08:02:00,32.0,27.0,29.99,SSW,197,8.0,-999.0,83,0.00,,,0.01,0.000000,,2013-01-27 16:02:00,
2013-01-27 08:11:00,32.0,27.0,29.99,SSW,197,8.0,-999.0,83,0.00,,,0.01,0.000000,,2013-01-27 16:11:00,
2013-01-27 08:33:00,33.0,28.0,30.01,North,1,0.0,-999.0,80,0.00,,,0.01,0.000000,,2013-01-27 16:33:00,
2013-01-27 08:42:00,33.0,28.0,30.01,North,1,0.0,-999.0,80,0.00,,,0.01,0.000000,,2013-01-27 16:42:00,
2013-01-27 08:53:00,33.0,28.0,30.01,North,1,0.0,-999.0,80,0.00,,,0.01,0.000000,,2013-01-27 16:53:00,
2013-01-27 09:01:00,33.0,28.0,30.01,North,1,0.0,-999.0,80,0.00,,,0.01,0.000000,,2013-01-27 17:01:00,
2013-01-27 09:11:00,33.0,28.0,30.01,North,1,0.0,-999.0,80,0.00,,,0.01,0.000000,,2013-01-27 17:11:00,
2013-01-27 09:42:00,33.0,25.0,30.04,North,0,0.0,-999.0,73,0.00,,,0.01,43.000000,,2013-01-27 17:42:00,
2013-01-27 09:52:00,33.0,25.0,30.04,North,0,0.0,-999.0,73,0.00,,,0.01,43.000000,,2013-01-27 17:52:00,
2013-01-27 10:02:00,33.0,25.0,30.04,North,0,0.0,-999.0,73,0.00,,,0.01,43.000000,,2013-01-27 18:02:00,
2013-01-27 10:11:00,33.0,25.0,30.04,North,0,0.0,-999.0,73,0.00,,,0.01,43.000000,,2013-01-27 18:11:00,
2013-01-27 10:42:00,33.0,25.0,30.06,North,0,1.0,-999.0,72,0.00,,,0.01,240.000000,,2013-01-27 18:42:00,
2013-01-27 10:52:00,33.0,25.0,30.06,North,0,1.0,-999.0,72,0.00,,,0.01,240.000000,,2013-01-27 18:52:00,
2013-01-27 11:01:00,33.0,25.0,30.06,North,0,1.0,-999.0,72,0.00,,,0.01,240.000000,,2013-01-27 19:01:00,
2013-01-27 11:11:00,33.0,25.0,30.06,North,0,1.0,-999.0,72,0.00,,,0.01,240.000000,,2013-01-27 19:11:00,
2013-01-27 11:33:00,33.0,26.0,30.07,NW,319,9.0,-999.0,74,0.00,,,0.01,413.000000,,2013-01-27 19:33:00,
2013-01-27 11:42:00,33.0,26.0,30.07,NW,319,9.0,-999.0,74,0.00,,,0.01,413.000000,,2013-01-27 19:42:00,
2013-01-27 11:52:00,33.0,26.0,30.07,NW,319,9.0,-999.0,74,0.00,,,0.01,413.000000,,2013-01-27 19:52:00,
2013-01-27 12:02:00,33.0,26.0,30.07,NW,319,9.0,-999.0,74,0.00,,,0.01,413.000000,,2013-01-27 20:02:00,
2013-01-27 12:11:00,33.0,26.0,30.07,NW,319,9.0,-999.0,74,0.00,,,0.01,413.000000,,2013-01-27 20:11:00,
2013-01-27 12:42:00,33.0,22.0,30.07,NW,318,13.0,28.0,63,0.00,,,0.01,552.000000,,2013-01-27 20:42:00,
2013-01-27 12:52:00,33.0,22.0,30.07,NW,318,13.0,28.0,63,0.00,,,0.01,552.000000,,2013-01-27 20:52:00,
2013-01-27 13:01:00,33.0,22.0,30.07,NW,318,13.0,28.0,63,0.00,,,0.01,552.000000,,2013-01-27 21:01:00,
2013-01-27 13:11:00,33.0,22.0,30.07,NW,318,13.0,28.0,63,0.00,,,0.01,552.000000,,2013-01-27 21:11:00,
2013-01-27 13:33:00,34.0,24.0,30.06,East,89,3.0,28.0,67,0.04,,,0.05,636.000000,,2013-01-27 21:33:00,
2013-01-27 13:43:00,34.0,24.0,30.06,East,89,3.0,28.0,67,0.04,,,0.05,636.000000,,2013-01-27 21:43:00,
2013-01-27 13:52:00,34.0,24.0,30.06,East,89,3.0,28.0,67,0.04,,,0.05,636.000000,,2013-01-27 21:52:00,
2013-01-27 14:01:00,34.0,24.0,30.06,East,89,3.0,28.0,67,0.04,,,0.05,636.000000,,2013-01-27 22:01:00,
2013-01-27 14:11:00,34.0,24.0,30.06,East,89,3.0,28.0,67,0.04,,,0.05,636.000000,,2013-01-27 22:11:00,
2013-01-27 14:42:00,35.0,24.0,30.05,SE,132,6.0,22.0,65,0.00,,,0.05,659.000000,,2013-01-27 22:42:00,
2013-01-27 14:52:00,35.0,24.0,30.05,SE,132,6.0,22.0,65,0.00,,,0.05,659.000000,,2013-01-27 22:52:00,
2013-01-27 15:02:00,35.0,24.0,30.05,SE,132,6.0,22.0,65,0.00,,,0.05,659.000000,,2013-01-27 23:02:00,
2013-01-27 15:11:00,35.0,24.0,30.05,SE,132,6.0,22.0,65,0.00,,,0.05,659.000000,,2013-01-27 23:11:00,
2013-01-27 15:32:00,36.0,25.0,30.05,NW,326,8.0,20.0,65,0.00,,,0.05,614.000000,,2013-01-27 23:32:00,
2013-01-27 15:42:00,36.0,25.0,30.05,NW,326,8.0,20.0,65,0.00,,,0.05,614.000000,,2013-01-27 23:42:00,
2013-01-27 15:53:00,36.0,25.0,30.05,NW,326,8.0,20.0,65,0.00,,,0.05,614.000000,,2013-01-27 23:53:00,
2013-01-27 16:01:00,36.0,25.0,30.05,NW,326,8.0,20.0,65,0.00,,,0.05,614.000000,,2013-01-28 00:01:00,
2013-01-27 16:11:00,36.0,25.0,30.05,NW,326,8.0,20.0,65,0.00,,,0.05,614.000000,,2013-01-28 00:11:00,
2013-01-27 16:42:00,37.0,26.0,30.05,NW,307,9.0,20.0,64,0.00,,,0.05,510.000000,,2013-01-28 00:42:00,
2013-01-27 16:52:00,37.0,26.0,30.05,NW,307,9.0,20.0,64,0.00,,,0.05,510.000000,,2013-01-28 00:52:00,
2013-01-27 17:01:00,37.0,26.0,30.05,NW,307,9.0,20.0,64,0.00,,,0.05,510.000000,,2013-01-28 01:01:00,
2013-01-27 17:11:00,37.0,26.0,30.05,NW,307,9.0,20.0,64,0.00,,,0.05,510.000000,,2013-01-28 01:11:00,
2013-01-27 17:42:00,33.0,25.0,30.04,North,353,6.0,19.0,72,0.00,,,0.04,352.000000,,2013-01-28 01:42:00,
2013-01-27 17:52:00,33.0,25.0,30.04,North,353,6.0,19.0,72,0.00,,,0.04,352.000000,,2013-01-28 01:52:00,
2013-01-27 18:02:00,33.0,25.0,30.04,North,353,6.0,19.0,72,0.00,,,0.04,352.000000,,2013-01-28 02:02:00,
2013-01-27 18:11:00,33.0,25.0,30.04,North,353,6.0,19.0,72,0.00,,,0.04,352.000000,,2013-01-28 02:11:00,
2013-01-27 18:42:00,33.0,29.0,30.04,WNW,291,11.0,22.0,85,0.00,,,0.04,168.000000,,2013-01-28 02:42:00,
2013-01-27 18:52:00,33.0,29.0,30.04,WNW,291,11.0,22.0,85,0.00,,,0.04,168.000000,,2013-01-28 02:52:00,
2013-01-27 19:02:00,33.0,29.0,30.04,WNW,291,11.0,22.0,85,0.00,,,0.04,168.000000,,2013-01-28 03:02:00,
2013-01-27 19:11:00,33.0,29.0,30.04,WNW,291,11.0,22.0,85,0.00,,,0.04,168.000000,,2013-01-28 03:11:00,
2013-01-27 19:32:00,32.0,29.0,30.04,WNW,287,17.0,28.0,88,0.00,,,0.04,12.000000,,2013-01-28 03:32:00,
2013-01-27 19:42:00,32.0,29.0,30.04,WNW,287,17.0,28.0,88,0.00,,,0.04,12.000000,,2013-01-28 03:42:00,
2013-01-27 19:53:00,32.0,29.0,30.04,WNW,287,17.0,28.0,88,0.00,,,0.04,12.000000,,2013-01-28 03:53:00,
2013-01-27 20:01:00,32.0,29.0,30.04,WNW,287,17.0,28.0,88,0.00,,,0.04,12.000000,,2013-01-28 04:01:00,
2013-01-27 20:11:00,32.0,29.0,30.04,WNW,287,17.0,28.0,88,0.00,,,0.04,12.000000,,2013-01-28 04:11:00,
2013-01-27 20:32:00,32.0,30.0,30.05,WNW,300,20.0,32.0,93,0.01,,,0.05,0.000000,,2013-01-28 04:32:00,
2013-01-27 20:42:00,32.0,30.0,30.05,WNW,300,20.0,32.0,93,0.01,,,0.05,0.000000,,2013-01-28 04:42:00,
2013-01-27 20:52:00,32.0,30.0,30.05,WNW,300,20.0,32.0,93,0.01,,,0.05,0.000000,,2013-01-28 04:52:00,
2013-01-27 21:03:00,32.0,30.0,30.05,WNW,300,20.0,32.0,93,0.01,,,0.05,0.000000,,2013-01-28 05:03:00,
2013-01-27 21:11:00,32.0,30.0,30.05,WNW,300,20.0,32.0,93,0.01,,,0.05,0.000000,,2013-01-28 05:11:00,
2013-01-27 21:32:00,31.0,30.0,30.04,WNW,298,23.0,33.0,97,0.00,,,0.05,0.000000,,2013-01-28 05:32:00,
2013-01-27 21:42:00,31.0,30.0,30.04,WNW,298,23.0,33.0,97,0.00,,,0.05,0.000000,,2013-01-28 05:42:00,
2013-01-27 21:52:00,31.0,30.0,30.04,WNW,298,23.0,33.0,97,0.00,,,0.05,0.000000,,2013-01-28 05:52:00,
2013-01-27 22:02:00,31.0,30.0,30.04,WNW,298,23.0,33.0,97,0.00,,,0.05,0.000000,,2013-01-28 06:02:00,
2013-01-27 22:11:00,31.0,30.0,30.04,WNW,298,23.0,33.0,97,0.00,,,0.05,0.000000,,2013-01-28 06:11:00,
2013-01-27 22:32:00,33.0,28.0,30.04,WNW,303,22.0,33.0,82,0.00,,,0.05,0.000000,,2013-01-28 06:32:00,
2013-01-27 22:42:00,33.0,28.0,30.04,WNW,303,22.0,33.0,82,0.00,,,0.05,0.000000,,2013-01-28 06:42:00,
2013-01-27 22:52:00,33.0,28.0,30.04,WNW,303,22.0,33.0,82,0.00,,,0.05,0.000000,,2013-01-28 06:52:00,
2013-01-27 23:02:00,33.0,28.0,30.04,WNW,303,22.0,33.0,82,0.00,,,0.05,0.000000,,2013-01-28 07:02:00,
2013-01-27 23:11:00,33.0,28.0,30.04,WNW,303,22.0,33.0,82,0.00,,,0.05,0.000000,,2013-01-28 07:11:00,
2013-01-27 23:42:00,33.0,28.0,30.05,WNW,302,20.0,30.0,80,0.00,,,0.05,0.000000,,2013-01-28 07:42:00,
2013-01-27 23:52:00,33.0,28.0,30.05,WNW,302,20.0,30.0,80,0.00,,,0.05,0.000000,,2013-01-28 07:52:00,